Location: Fornova de Taro
(44.7000°N, 10.1000°E)
Time: 19:43:46
(UTC+00:00)

CZ-2D R/B - Pass Details

Date: 26 May 2022
Orbit: 791 x 845 km, 98.7° (Epoch: 02 July)

Event Time Altitude Azimuth Distance (km) Brightness Sun altitude
Rises 00:52:29 0° 15° (NNE) 3,379 6.9 -20.7°
Reaches altitude 10° 00:54:53 10° 18° (NNE) 2,433 5.8 -20.5°
Maximum altitude 01:00:16 73° 103° (ESE) 852 2.2 -20.1°
Enters shadow 01:02:30 36° 180° (S) 1,272 2.7 -19.9°
